shoulder
new_line
new_line
first
second
third
Al di la della Luna; Beyond the Moon; Astrophotography; Astrofotografia; Danilo Pivato
 
 
         
         
2024
Orbital Elements

Epoch 2024 March. 31.0 TT = JDT 2460400.5
T 2024 June  30.04684 TT                                                     Rudenko
q   1.1755340            (2000.0)                        P                      Q
n   0.01420742    Peri.    64.41313     -0.60851355     -0.37167570   
a  16.8833724     Node   85.84690    +0.18562278     -0.92568696
e    0.9303733     Incl.     44.66540    +0.77152799    -0.07043310
P   69.4
Return in the future: 2093
       
Orbit Diagram
         
2024.05.05
2024.05.07
2024.05.09
         
         
         
         
         
         
         
         
         
         
         
         

 

       
 
Since: 01/01/2004
 
       
 
Since: 01/11/2010